Tracking 31011 objects as of 12-Jul-2025
HD Live streaming from Space Station
objects crossing your sky now

SL-14 DEB

Track SL-14 DEB now!
10-day predictions


NORAD ID: 26007
Int'l Code: 1991-068S
Perigee: 1,470.0 km
Apogee: 1,487.1 km
Inclination: 82.7 °
Period: 115.4 minutes
Semi major axis: 7849 km
RCS: 0.1171 m2 (medium)
Launch date: September 28, 1991
Source: Commonwealth of Independent States (former USSR) (CIS)
Launch site: PLESETSK MISSILE AND SPACE COMPLEX (PKMTR)

Note: This is SATELLITE DEBRIS
Your satellite tracking list
Your tracking list is empty




NASA's NSSDC Master Catalog

Two Line Element Set (TLE):
1 26007U 91068S   25192.49649466  .00000024  00000-0  89608-4 0  9997
2 26007  82.6983 101.9835 0010903 206.5314 326.5000 12.48355810173424
Source of the keplerian elements: AFSPC